This is the latest recevied weather packets stored in our database for station/object XE2MDH-15. If no packets are shown the sender has not sent any weather packets the latest 10 day(s).
| Time | Temp. | Humidity | Pressure | Rain* | Wind** | Luminosity | Snow |
|---|---|---|---|---|---|---|---|
| 1777850269 | 51.11° C | 21% | 806.2 hPa | - | - | - | - |
| 1777849372 | 53.33° C | 22% | 806.3 hPa | - | - | - | - |
| 1777848472 | 53.89° C | 22% | 806.4 hPa | - | - | - | - |
| 1777847573 | 52.22° C | 22% | 806.6 hPa | - | - | - | - |
| 1777846672 | 53.33° C | 22% | 806.7 hPa | - | - | - | - |
| 1777845772 | 51.67° C | 23% | 806.8 hPa | - | - | - | - |
| 1777844872 | 51.67° C | 23% | 807 hPa | - | - | - | - |
| 1777843971 | 49.44° C | 23% | 807.2 hPa | - | - | - | - |
| 1777843071 | 50.56° C | 23% | 807.5 hPa | - | - | - | - |
| 1777842171 | 49.44° C | 24% | 807.7 hPa | - | - | - | - |
| 1777841271 | 50° C | 24% | 808.1 hPa | - | - | - | - |
| 1777840371 | 47.78° C | 24% | 808.5 hPa | - | - | - | - |
| 1777839470 | 46.11° C | 24% | 808.8 hPa | - | - | - | - |
| 1777837670 | 42.22° C | 24% | 809.2 hPa | - | - | - | - |
| 1777836771 | 41.67° C | 25% | 809.3 hPa | - | - | - | - |
| 1777835870 | 41.11° C | 25% | 809.7 hPa | - | - | - | - |
| 1777834970 | 40° C | 25% | 810.1 hPa | - | - | - | - |
| 1777834069 | 37.78° C | 25% | 810.1 hPa | - | - | - | - |
| 1777833169 | 37.22° C | 26% | 810.3 hPa | - | - | - | - |
| 1777832269 | 35.56° C | 26% | 810.7 hPa | - | - | - | - |
| 1777831369 | 32.78° C | 26% | 810.9 hPa | - | - | - | - |
| 1777830469 | 31.67° C | 27% | 811 hPa | - | - | - | - |
| 1777829569 | 31.67° C | 27% | 811.2 hPa | - | - | - | - |
| 1777828668 | 27.22° C | 27% | 811.4 hPa | - | - | - | - |
| 1777828186 | 31.11° C | 28% | 811.7 hPa | - | - | - | - |
* Rain since midnight (hover to see other rain measurements)
** Current wind speed in m/s (hover to see current wind gust speed)